Simultaneous Nadir Overpasses (SNOs) Predictions

Prediction of SNOs between GOES-17 and AQUA Satellite Orbit:

Table of predicted SNOs for the next 14.0 days since TLE Epoch: 8/29/2025
Index Date Time (GOES-17) GOES-17 Lat,Lon AQUA Lat,Lon Distance(km) Time Diff (sec)
1 09/01/2025 08:48:39 -0.20, -89.51 -0.21, -89.56 5.38 71
2 09/03/2025 20:49:50 0.20, -89.55 0.27, -89.16 43.78 80
3 09/04/2025 09:08:55 -0.20, -89.53 0.73, -93.77 482.56 80
4 09/06/2025 08:45:41 -0.21, -89.55 -0.40, -88.74 92.29 80
5 09/06/2025 21:04:55 0.20, -89.57 -0.59, -93.39 433.51 80
6 09/08/2025 20:46:59 0.21, -89.60 0.47, -88.34 142.63 80
7 09/09/2025 09:06:04 -0.20, -89.58 0.51, -92.95 382.88 80
8 09/11/2025 08:42:48 -0.21, -89.60 -0.60, -87.91 193.46 80
9 09/11/2025 21:04:40 0.20, -89.63 -0.43, -92.55 332.34 80
